www.pogodaiklimat.ru

Погода и климат >> Архив погоды >> Россия >> Оренбургская область >> Домбаровский


АРХИВ ПОГОДЫ в Домбаровском

Время (UTC), дата Ветер
(напр.,м/с)
 
Видим.   Явления Облачность Т
(С)
Тd
(С)
f
(%)
Тe
(С)
Тes
(С)
Комфортность P
(гПа)
Po
(гПа)
Тmin
(С)
Tmax
(С)
R
(мм)
R24
(мм)
S
(см)
12 13.07 ЮВ 4
{11}
20 км 8/0
[Ci]
+39.1 +1.6 10 +36 +40 очень
жарко
1002.5 972.5
15 13.07 ЮВ 5
{11}
20 км 3/0
[Ci fib]
+36.8 +3.6 13 +34 +34 очень
жарко
1002.7 972.4 +40.0
18 13.07 ЮВ 4 20 км 3/0
[Ci sp]
+29.5 +5.6 22 +28 +28 жарко 1004.4 973.4
21 13.07 ЮВ 3 20 км 5/0
[Ci]
+25.8 +5.0 26 +25 +25 комфорт 1005.0 973.6
00 14.07 ЮВ 3 20 км 4/0
[Ci sp]
+22.1 +5.0 33 +22 +22 комфорт 1005.6 973.8
03 14.07 Ю 4 20 км 8/0
[Ac trans Ci]
+26.7 +7.0 29 +26 +28 жарко 1005.7 974.4 +21.5
06 14.07 ЮЗ 2 20 км 9/0
[Ci sp]
+33.2 +9.6 23 +32 +44 жарко 1004.5 973.9
09 14.07 З 1 20 км 9/6 600 м
[Sc Ac trans]
+34.8 +11.7 25 +35 +39 очень
жарко
1004.1 973.7
12 14.07 В 1 20 км 8/5 600 м
[Cb cap Ac trans Ci fib]
+34.6 +11.2 24 +34 +37 очень
жарко
1003.5 973.1
15 14.07 С 1 20 км 8/5 600 м
[Sc Ci fib]
+33.3 +13.4 30 +34 +34 очень
жарко
1002.8 972.3 +35.4
18 14.07 СВ 2 20 км 6/3 600 м
[Cb cap Ac trans]
+27.3 +11.4 37 +28 +28 жарко 1002.1 971.0
21 14.07 В 6-10
{11}
20 км 8/0
[Ac lent]
+28.5 +3.0 19 +27 +27 жарко 999.2 968.3
00 15.07 ЮВ 7-12
{14}
20 км 6/6 600 м
[Cb cap]
+27.0 +4.4 23 +26 +26 жарко 997.3 966.3
03 15.07 Ю 7-12
{14}
20 км ясно +27.2 +11.2 37 +28 +29 жарко 998.1 967.1 +26.2
06 15.07 ЮЗ 5
{12}
20 км ясно +28.5 +11.7 35 +29 +37 жарко 999.9 969.0 +24.7
09 15.07 З 6-12
{14}
20 км 3/0
[Ci sp]
+27.8 +12.4 39 +29 +35 жарко 1001.9 970.8
12 15.07 З 6-12
{13}
20 км ясно +27.1 +10.8 36 +28 +31 жарко 1003.5 972.3
15 15.07 З 8-12
{13}
20 км ясно +23.9 +9.0 39 +25 +25 комфорт 1005.8 974.2 +29.6
18 15.07 З 7-11
{12}
20 км ясно +19.9 +8.5 48 +21 +21 комфорт 1007.8 975.7
21 15.07 СЗ 3
{11}
20 км ясно +15.8 +9.7 67 +15 +15 1009.3 976.8
00 16.07 СЗ 4 20 км ясно +13.7 +9.6 76 +12 +12 1010.8 977.9
03 16.07 СЗ 5 20 км ясно +18.9 +10.4 58 +19 +21 1011.5 979.2 +13.6
06 16.07 СЗ 4 20 км ясно +24.6 +8.7 36 +25 +34 комфорт 1011.1 979.4
09 16.07 СЗ 5
{12}
20 км ясно +27.5 +6.2 26 +27 +35 жарко 1010.4 979.0
12 16.07 СЗ 3
{10}
20 км 3/0
[Ci fib]
+29.3 +2.8 18 +27 +33 жарко 1010.0 978.7
15 16.07 СЗ 2 20 км 3/0
[Ci fib]
+28.2 +4.3 22 +27 +27 жарко 1010.2 978.9 +29.4
18 16.07 С 1 20 км ясно +18.7 +7.5 48 +20 +20 1012.3 979.9
21 16.07 штиль 0 20 км ясно +14.7 +7.7 63 +15 +15 1013.2 980.4
00 17.07 С 1 20 км 4/0
[Ac trans]
+14.9 +7.7 62 +16 +16 1014.0 981.1
03 17.07 В 4 20 км 3/0
[Ci fib]
+23.2 +9.0 40 +25 +27 комфорт 1013.5 981.6 +13.7
06 17.07 ЮВ 4
{10}
20 км 3/0
[Ci]
+28.4 +8.3 28 +28 +37 жарко 1012.3 981.0
09 17.07 ЮВ 3 20 км ясно +31.2 +6.8 22 +30 +43 жарко 1011.1 980.0
12 17.07 В 2 20 км 4/0
[Ci]
+32.4 +5.3 18 +30 +37 жарко 1009.8 978.9
15 17.07 ЮВ 2 20 км 8/0
[Ac As Ci]
+30.9 +6.6 22 +29 +30 жарко 1009.9 978.9 +32.7
18 17.07 В 3 20 км 8/6 600 м
[Sc Ci fib]
+24.4 +6.6 32 +24 +24 комфорт 1009.9 978.2
21 17.07 В 3 20 км ясно +21.2 +5.6 36 +22 +22 комфорт 1010.4 978.3
00 18.07 ЮВ 4 20 км ясно +20.4 +5.4 37 +21 +21 комфорт 1010.8 978.6
03 18.07 ЮВ 4 20 км 8/0
[Ac trans Ci fib]
+25.6 +6.9 30 +25 +27 комфорт 1011.1 979.5 +19.9
06 18.07 ЮВ 5 20 км 8/3 600 м
[Cu hum Ci]
+31.7 +5.6 19 +30 +34 жарко 1010.0 979.0
09 18.07 Ю 4-11
{11}
20 км 8/3 600 м
[Cu hum Ci]
+35.1 +4.7 15 +32 +39 жарко 1008.7 978.1
12 18.07 Ю 4
{11}
20 км 6/0
[Ac trans Ci sp]
+35.9 +4.1 14 +33 +37 жарко 1007.5 977.0
15 18.07 ЮВ 3
{11}
20 км 8/0
[Ac und Ci]
+33.8 +4.3 16 +31 +31 жарко 1007.8 977.1 +36.0
18 18.07 Ю 2 20 км 8/3 600 м
[Cb cap Ac As Ci sp]
+27.5 +5.8 25 +27 +27 жарко 1009.1 977.7
21 18.07 ЮВ 2 20 км 4/0
[Ac As Ci fib]
+22.7 +6.0 34 +23 +23 комфорт 1009.7 977.8
00 19.07 ЮВ 3 20 км 3/0
[Ac lent]
+22.2 +4.5 31 +22 +22 комфорт 1010.4 978.4
03 19.07 ЮВ 3 20 км 4/3 600 м
[Cb cap Ac As]
+28.0 +3.9 21 +26 +29 жарко 1009.9 978.6 +21.9
06 19.07 Ю 5
{10}
20 км 5/0
[Ci fib]
+33.9 +2.9 14 +31 +37 жарко 1008.6 977.9
09 19.07 ЮВ 4 20 км 8/5 600 м
[Cb cap Ci sp]
+34.1 +2.9 14 +31 +36 жарко 1007.7 977.0
12 19.07 ЮВ 2 20 км 8/6 600 м
[Cb cap Ci sp]
+35.3 +4.1 14 +32 +35 жарко 1007.0 976.5
15 19.07 В 2 20 км 9/8 600 м
[Cb cap Ci sp]
+32.8 +4.8 17 +30 +30 жарко 1005.5 974.7 +36.7
18 19.07 В 6
{10}
20 км 9/9 700 м
[Cb cap]
+31.6 +3.2 17 +29 +29 жарко 1005.1 974.3
21 19.07 В 4 20 км 6/0
[Ac As]
+27.1 +5.0 24 +26 +26 жарко 1004.7 973.5
00 20.07 ЮВ 5
{13}
20 км 8/0
[Ci fib]
+26.5 +5.7 26 +26 +26 жарко 1003.6 972.3
03 20.07 ЮВ 6-11
{12}
20 км ясно +28.2 +4.6 22 +27 +28 жарко 1003.5 972.4 +25.8
06 20.07 Ю 4
{11}
20 км ясно +32.7 +9.5 24 +32 +41 жарко 1002.9 972.3
09 20.07 ЮЗ 4 20 км ясно +36.7 +7.0 16 +34 +45 очень
жарко
1002.0 971.8

 

Местоположение метеостанции Домбаровский (Оренбургская область, Россия): широта 50.75 долгота 59.55 высота над уровнем моря 278 м.

В архиве по умолчанию представлена погода в Домбаровском за последнюю неделю. Архивные данные за месяц целиком и за предыдущие месяцы, начиная с января 2011 года, Вы можете получить, выбрав интересующий диапазон дат из раскрывающегося списка и нажав кнопку "Ввод!".


*Определитесь, кто Вы:
робот инопланетянин человек

Внимание! Время в таблицах - всемирное. Для получения местного времени необходимо прибавить поправку, которая равна 5 ч.

Смотрите также архив погоды в соседних городах и на ближайших метеорологических станциях:

Погода в Степном (Актюбинская область, Казахстан) (61 км)
Погода в Комсомольском (Костанайская область, Казахстан) (75 км)
Погода в Орске (Оренбургская область, Россия) (76 км)
Погода в Карабутаке (Актюбинская область, Казахстан) (98 км)
Погода в Зерносовхозе Озерном (Оренбургская область, Россия) (100 км)
Погода в Кос-Истеке (Актюбинская область, Казахстан) (116 км)
Погода в Акжаре (Актюбинская область, Казахстан) (124 км)
Погода в Энергетике (Оренбургская область, Россия) (124 км)
Погода в Айдырля (Оренбургская область, Россия) (135 км)
Погода в Теренсае (Актюбинская область, Казахстан) (151 км)

Пояснения к столбцам:

Ветер - указаны скорость ветра в м/с - средняя за 10 мин, порывы в срок и между сроками (в фигурных скобках) и направление, откуда дует ветер: С - северный, СВ - северо-восточный, В - восточный, ЮВ - юго-восточный, Ю - южный, ЮЗ - юго-западный, З - западный, СЗ - северо-западный.
Видимость - горизонтальная дальность видимости в метрах или километрах. При видимости от 1 до 10 км при отсутствии осадков обычно наблюдается дымка, при ухудшении видимости до 1 км и менее - туман. В сухую погоду видимость может ухудшаться дымом, пылью или мглою.
Явления - указаны атмосферные явления, наблюдавшиеся в срок или в последний час перед сроком; фигурными скобками обозначены явления, наблюдавшиеся между сроками (за 1-3 часа до срока); квадратными скобками обозначены град или гололедные отложения с указанием их диаметра в мм.
Облачность - указаны через наклонную черту общая и нижняя облачность в баллах и высота нижней границы облаков в метрах; квадратными скобками обозначены формы облаков: Ci - перистые, Cs - перисто-слоистые, Cc - перисто-кучевые, Ac - высококучевые, As - высокослоистые, Sc - слоисто-кучевые, Ns - слоисто-дождевые, Cu - кучевые, Cb - кучево-дождевые. Подробнее классификацию облаков см. в Атласе облаков (PDF).
T - Температура воздуха - температура, измеренная на высоте 2 м над землей.
Td - Температура точки росы - температура, при понижении до которой содержащийся в воздухе водяной пар достигнет насыщения.
f - Относительная влажность воздуха - влажноcть воздуха, измеренная на высоте 2 м над землей.
Te - Эффективная температура - температура, которую ощущает одетый по сезону человек в тени. Характеристика душности погоды. При расчете учитывается влияние влажности воздуха и скорости ветра на теплоощущения человека.
Tes - Эффективная температура на солнце - температура, которую ощущает человек, с поправкой на солнечный нагрев. Характеристика знойности погоды. Зависит от высоты солнца над горизонтом, облачности и скорости ветра. Ночью, в пасмурную погоду, а также при ветре 12 м/с и более поправка равна нулю.
P - Атмосферное давление - приведенное к уровню моря атмосферное давление.
Po - Атмосферное давление - измеренное на уровне метеостанции атмосферное давление.
Tmin - Минимальная температура - минимум температуры воздуха на высоте 2 м над землей.
Tmax - Максимальная температура - максимум температуры воздуха на высоте 2 м над землей.
R - Количество осадков - Количество выпавших осадков за период времени, мм. При наведении курсора мыши на число - период времени, за который выпало указанное количество осадков.
R24 - Количество осадков - Количество выпавших осадков за 24 часа, мм.
S - Снежный покров - Высота снежного покрова, см. При наведении курсора мыши на число - состояние снежного покрова и степень покрытия местности в баллах.